Regional Weather Roundup
Issued by NWS Grand Forks, ND

Home | Current Version | Previous Version | Text Only | Print | Product List | Glossary Off
Versions: 1 2 3 4 5 6 7 8 9 10 11 12 13 14 15 16 17 18 19 20 21 22 23 24 25 26 27 28 29 30 31 32 33 34 35 36 37 38 39 40 41 42 43 44 45 46 47 48 49 50

000
ASUS43 KFGF 070110
RWRFGF
PRAIRIE TO PINES  WEATHER ROUNDUP
NATIONAL WEATHER SERVICE EASTERN NORTH DAKOTA/GRAND FORKS ND
800 PM CDT WED MAY 06 2015

 **SATELLITE DATA USED TO AUGMENT SKY COVER AT AUTOMATED STATIONS**
 *****  WEATHER ACROSS EASTERN NORTH DAKOTA  *****

CITY           SKY/WX    TMP DP  RH WIND       PRES   REMARKS
GRAND FORKS    LGT RAIN  62  59  90 E13       29.70F
GRAND FRKS AFB CLOUDY    61  61 100 E10       29.69F
GRAND FRKS NWS   N/A     59 N/A N/A E10         N/A
DEVILS LAKE    CLOUDY    61  55  82 E18       29.66F
FARGO          CLOUDY    65  60  84 SE18G24   29.66F
WAHPETON ARPT  CLOUDY    64  61  88 SE9       29.69R
$$

 ***** WEATHER ACROSS CENTRAL AND WESTERN NORTH DAKOTA  *****

CITY           SKY/WX    TMP DP  RH WIND       PRES   REMARKS
BISMARCK       MOCLDY    65  58  78 E13       29.60S
MINOT          CLOUDY    60  58  92 CALM      29.63R
JAMESTOWN      CLOUDY    61  59  93 E15       29.61F FOG
MINOT AFB      CLOUDY    62  62 100 NW7       29.62R
GARRISON         N/A     61  58  90 N6        29.62F
WILLISTON      LGT RAIN  52  49  89 N16       29.73R
DICKINSON      LGT RAIN  54  52  93 NW22G30   29.65R
HETTINGER      LGT RAIN  55  53  93 NW18G30   29.65R
$$

 *****  OTHER AIRPORT OBSERVATIONS IN OUR AREA  *****

CITY           SKY/WX    TMP DP  RH WIND       PRES   REMARKS
WALHALLA       MOCLDY    61  61 100 SE13      29.72S FOG
GRAFTON AIRPOR MOCLDY    61  61 100 E12       29.72F FOG
VALLEY CITY AR CLOUDY    61  61 100 SE18G26   29.64F FOG
CANDO          FAIR      59  57  94 SE18G24   29.67S
CAVALIER APRT  LGT RAIN  61  61 100 SE7       29.72F VSB 1
GWINNER          N/A     64  64 100 SE13      29.65S
SHEYENNE NWR     N/A     65  63  94 SE10      29.95S
ROLLA          NOT AVBL
 ***** THE ABOVE OBSERVATIONS ARE NON NWS ARE NOT QUALITY
       CONTROLLED AND MAY MIS-REPORT RAIN FOR SNOW...
$$

  *****  WEATHER ACROSS NORTHERN MINNESOTA  *****

CITY           SKY/WX    TMP DP  RH WIND       PRES   REMARKS
FLAG ISLAND    LGT RAIN  57  55  94 SE3       29.82F
WARROAD        DRIZZLE   59  55  88 E8        29.80F
ROSEAU         CLOUDY    61  55  82 E8        29.78F
HALLOCK        DRIZZLE   63  61  94 E15       29.74S
THF RVR FALLS  CLOUDY    61  57  88 E13       29.75F
BAUDETTE       LGT RAIN  61  58  90 E8        29.82F
WASKISH        CLOUDY    63  55  77 E10       29.82S
CROOKSTON      DRIZZLE   61  59  94 E10       29.70F
$$
  *****  WEATHER ACROSS CENTRAL AND WEST MINNESOTA  *****

CITY           SKY/WX    TMP DP  RH WIND       PRES   REMARKS
FOSSTON        CLOUDY    63  55  77 E9G16     29.75F
BEMIDJI        CLOUDY    62  54  74 E9        29.80S
PARK RAPIDS    CLOUDY    64  58  80 SE16      29.78F
ELBOW LAKE     HVY RAIN  65  63  91 SE15G21   29.72R
WADENA         CLOUDY    64  59  82 SE15      29.76S
DETROIT LAKES  CLOUDY    63  59  88 SE8       29.75S
MOORHEAD       CLOUDY    64  61  88 SE14G21   29.68F
FERGUS FALLS   CLOUDY    64  63  94 SE13      29.71S
MORRIS MN      MOCLDY    66  61  82 S17       29.71R
STAPLES        CLOUDY    63  59  88 SE8       29.79F
$$
  *****  WEATHER ELSEWHERE ACROSS MINNESOTA  *****

CITY           SKY/WX    TMP DP  RH WIND       PRES   REMARKS
DULUTH         CLOUDY    57  44  62 E16       29.93S
INTRNTL FALLS  CLOUDY    64  55  72 SE10      29.85F
ELY            CLOUDY    59  50  72 SE12      29.95F
CLOQUET        CLOUDY    54  37  54 E7        29.92S
WHEATON        MOCLDY    66  61  82 SE8       29.69F
BRAINERD       CLOUDY    62  60  93 SE7       29.83F
HIBBING        CLOUDY    61  53  75 E9        29.89F
ALEXANDRIA     LGT RAIN  65  62  90 SE17      29.76S FOG
SAINT CLOUD    MOCLDY    67  62  84 SE12      29.81F
MINNEAPOLIS    CLOUDY    69  61  75 SE15      29.86S
$$

  *****  WEATHER ACROSS SOUTH DAKOTA  *****

CITY           SKY/WX    TMP DP  RH WIND       PRES   REMARKS
SIOUX FALLS    CLOUDY    68  60  75 SE18G29   29.70F
BROOKINGS      MOCLDY    64  61  88 S17       29.72S
WATERTOWN      CLOUDY    65  60  84 S22G30    29.69R
HURON          PTCLDY    67  60  78 S15G25    29.62S
SISSETON         N/A     68  62  81 S18       29.65S
ABERDEEN       MOCLDY    66  62  87 S6        29.61S
MITCHELL       LGT RAIN  66  63  90 SE12      29.65R
PIERRE         CLOUDY    66  54  65 W9        29.58S
MOBRIDGE       LGT RAIN  65  59  81 S12       29.57R
RAPID CITY     LGT RAIN  52  47  83 NW32G41   29.64R
$$

  *****  SOME WEATHER IN NEARBY STATES *****

CITY           SKY/WX    TMP DP  RH WIND       PRES   REMARKS
GLASGOW MT     PTSUNNY   57  34  41 NW22G30   29.82S
GREAT FALLS MT MOSUNNY   56  21  25 NE13      29.90S
CHEYENNE WY    LGT RAIN  49  45  86 N16G23    29.76S
SCOTTSBLUFF NE CLOUDY    58  54  86 NW12      29.66R
OMAHA NE       CLOUDY    70  59  68 SE18      29.76S
DES MOINES IA  MOCLDY    72  58  61 S14       29.88S
DAVENPORT IA   CLOUDY    71  58  63 S3        29.99F
CHICAGO IL     MOCLDY    62  54  74 NE7       30.06S
EAU CLAIRE WI  RAIN      64  60  87 S12       29.96R
LA CROSSE WI   LGT RAIN  68  61  78 SE7       29.94F
$$

  *****  SOME NATIONAL WEATHER *****

CITY           SKY/WX    TMP DP  RH WIND       PRES   REMARKS
LA GUARDIA NY  PTCLDY    63  38  39 SE7       30.23R
RALEIGH NC     MOCLDY    71  52  50 SE3       30.15R
ATLANTA GA     PTCLDY    76  50  40 SE3       30.11S
NEW ORLEANS LA PTCLDY    77  66  68 SE7       30.01S
OKLAHOMA CITY  TSTM      68  63  83 N20G60    29.81S VSB 1/4
ALBUQUERQUE NM PTSUNNY   68  36  30 W12G18    29.85R
SALT LAKE CITY LGT RAIN  55  48  77 N14       29.71S
LOS ANGELES CA MOSUNNY   61  50  67 W17       29.86R
BOISE ID       MOSUNNY   62  19  19 NW15      29.77F
SEATTLE WA     MOSUNNY   61  38  42 N12       30.09S
$$

*** WEATHER ACROSS MANITOBA...SASKATCHEWAN AND ONTARIO ***
                ***ONTARIO***

CITY           SKY/WX    TMP DP  RH WIND       PRES   REMARKS
GERALDTON      CLOUDY    59  23  25 S7        30.07S
THUNDER BAY    MOCLDY    52  34  50 E9        30.05S
SIOUX LOOKOUT  CLOUDY    66  50  55 S6        29.91S
TORONTO        PTCLDY    59  36  41 S6        30.19S
BIG TROUT LK   CLEAR     48  28  46 E12G20    29.99F
PICKLE LAKE    MOCLDY    70  34  26 S13G18    29.92S
DRYDEN         MOCLDY    66  52  59 SE9       29.89F
KENORA         LGT RAIN  61  55  82 SE7       29.86F
$$
                *** MANITOBA***

CITY           SKY/WX    TMP DP  RH WIND       PRES   REMARKS
BRANDON        CLOUDY    59  59 100 SE8       29.68F FOG
DAUPHIN        LGT RAIN  61  59  94 SE8       29.68F FOG
ISLAND LAKE    MOCLDY    54  34  47 E14       29.81F
PILOT MOUND      N/A     61  57  88 SE15        N/A
THE PAS        DRIZZLE   36  34  93 NE10G17   29.78S
THOMPSON       LGTSLEET  27  23  86 NE17G25   29.98F VSB 1   WCI  14
WINNIPEG       CLOUDY    63  61  94 SE12      29.74F
LYNN LAKE      FLURRIES  25  21  86 NE16G29   30.07F WCI  12
CHURCHILL      CLOUDY    21 N/A N/A NE12        N/A  WCI   9
GILLAM         FRZ RAIN  23  19  86 NE15G29   30.11F DRFTSNOWWCI  10
$$
                ***SASKATCHEWAN***

CITY           SKY/WX    TMP DP  RH WIND       PRES   REMARKS
ESTEVAN        LGT RAIN  52  50  93 NW21G29   29.71S FOG
KINDERSLEY     PTSUNNY   45  30  57 NW23G29   29.92R
LLOYDMINSTER   CLOUDY    37  30  75 NW12G18   29.94R
PRINCE ALBERT  CLOUDY    41  37  87 N8        29.85R
REGINA         CLOUDY    54  45  71 NW22G29   29.78R
YORKTON        LGT RAIN  52  50  93 W17G25    29.71R
N. BATTLEFORD  CLOUDY    41  34  75 NW14G20   29.91R
LA RONGE       LGT SNOW  32  32 100 NE13      29.94R WCI  22
SASKATOON      PTSUNNY   46  36  66 NW17G23   29.86R
SWIFT CURRENT  SUNNY     50  32  50 NW24G31   29.86R
$$
NOTE: THESE ARE AUTOMATED STATIONS WITH LIMITED QUALITY CONTROL
      "FAIR" INDICATES FEW OR NO CLOUDS BELOW 12,000 FEET WITH NO
      SIGNIFICANT WEATHER AND/OR OBSTRUCTIONS TO VISIBILITY.
      SKY/WX - SKY CONDITION AND SIGNIFICANT WEATHER.
      TMP - AIR TEMPERATURE.    DP   - DEWPOINT TEMPERATURE.
      RH  - RELATIVE HUMIDITY.  PRES - PRESSURE.
      HX  - HEAT INDEX.         WCI  - WIND CHILL INDEX.
$



USA.gov is the U.S. government's official web portal to all federal, state and local government web resources and services.